| time (UTC) | temp F | wind direction | speed MPH | gust MPH | rain 1hr in | rain 24hr in | rain mn in | humidity % | barometer mb |
| 20260508154500 | 67 | 313 | 0.0 | 1.0 | 0.00 | 0.00 | 0.00 | 59 | 1019.8 |
| 20260508153956 | 66 | 316 | 2.0 | 3.0 | 0.00 | 0.00 | 0.00 | 52 | 1019.8 |
| 20260508153453 | 66 | 28 | 1.0 | 3.0 | 0.00 | 0.00 | 0.00 | 53 | 1019.9 |
| 20260508152949 | 66 | 320 | 0.0 | 1.0 | 0.00 | 0.00 | 0.00 | 58 | 1019.8 |
| 20260508152446 | 65 | 312 | 0.0 | 2.0 | 0.00 | 0.00 | 0.00 | 61 | 1020.0 |
| 20260508151942 | 65 | 303 | 0.0 | 1.0 | 0.00 | 0.00 | 0.00 | 60 | 1019.9 |
| 20260508151439 | 65 | 294 | 0.0 | 1.0 | 0.00 | 0.00 | 0.00 | 58 | 1019.9 |
| 20260508150935 | 65 | 60 | 2.0 | 2.0 | 0.00 | 0.00 | 0.00 | 60 | 1019.8 |
| 20260508150432 | 65 | 39 | 2.0 | 2.0 | 0.00 | 0.00 | 0.00 | 58 | 1019.8 |
| 20260508145928 | 64 | 139 | 1.0 | 5.0 | 0.00 | 0.00 | 0.00 | 60 | 1019.8 |
| 20260508145425 | 64 | 284 | 2.0 | 5.0 | 0.00 | 0.00 | 0.00 | 60 | 1019.9 |
| 20260508144922 | 64 | 4 | 1.0 | 3.0 | 0.00 | 0.00 | 0.00 | 58 | 1019.9 |
| 20260508144420 | 63 | 206 | 1.0 | 2.0 | 0.00 | 0.00 | 0.00 | 59 | 1020.0 |
| 20260508143917 | 64 | 0 | 1.0 | 2.0 | 0.00 | 0.00 | 0.00 | 59 | 1019.9 |
| 20260508143414 | 63 | 328 | 3.0 | 6.0 | 0.00 | 0.00 | 0.00 | 60 | 1020.2 |
| 20260508142910 | 63 | 22 | 0.0 | 1.0 | 0.00 | 0.00 | 0.00 | 60 | 1020.2 |
| 20260508142408 | 64 | 263 | 1.0 | 2.0 | 0.00 | 0.00 | 0.00 | 60 | 1019.9 |
| 20260508141904 | 63 | 342 | 0.0 | 1.0 | 0.00 | 0.00 | 0.00 | 65 | 1020.0 |
| 20260508141401 | 63 | 343 | 0.0 | 2.0 | 0.00 | 0.00 | 0.00 | 61 | 1020.0 |
| 20260508140858 | 64 | 237 | 3.0 | 5.0 | 0.00 | 0.00 | 0.00 | 62 | 1020.2 |
| 20260508140355 | 63 | 353 | 0.0 | 2.0 | 0.00 | 0.00 | 0.00 | 66 | 1020.3 |
| 20260508135851 | 63 | 24 | 0.0 | 3.0 | 0.00 | 0.00 | 0.00 | 65 | 1020.2 |
| 20260508135347 | 63 | 271 | 1.0 | 1.0 | 0.00 | 0.00 | 0.00 | 67 | 1020.3 |
| 20260508134844 | 64 | 334 | 0.0 | 0.0 | 0.00 | 0.00 | 0.00 | 66 | 1020.0 |
| 20260508134340 | 63 | 353 | 0.0 | 0.0 | 0.00 | 0.00 | 0.00 | 68 | 1020.0 |
| 20260508133837 | 62 | 299 | 0.0 | 0.0 | 0.00 | 0.00 | 0.00 | 71 | 1020.2 |
| 20260508133335 | 61 | 313 | 0.0 | 0.0 | 0.00 | 0.00 | 0.00 | 75 | 1020.2 |
| 20260508132832 | 62 | 287 | 0.0 | 0.0 | 0.00 | 0.00 | 0.00 | 71 | 1020.0 |
| 20260508132329 | 62 | 288 | 0.0 | 0.0 | 0.00 | 0.00 | 0.00 | 75 | 1020.1 |
| 20260508131826 | 62 | 324 | 0.0 | 0.0 | 0.00 | 0.00 | 0.00 | 75 | 1019.9 |
| 20260508131321 | 61 | 289 | 0.0 | 0.0 | 0.00 | 0.00 | 0.00 | 78 | 1019.8 |
| 20260508130819 | 60 | 282 | 0.0 | 0.0 | 0.00 | 0.00 | 0.00 | 81 | 1020.0 |
| 20260508130316 | 61 | 287 | 0.0 | 0.0 | 0.00 | 0.00 | 0.00 | 79 | 1019.9 |
| 20260508125812 | 60 | 294 | 0.0 | 0.0 | 0.00 | 0.00 | 0.00 | 81 | 1019.8 |
| 20260508125308 | 58 | 271 | 0.0 | 0.0 | 0.00 | 0.00 | 0.00 | 84 | 1019.8 |
| 20260508124806 | 58 | 290 | 0.0 | 0.0 | 0.00 | 0.00 | 0.00 | 84 | 1019.7 |
| 20260508124303 | 58 | 287 | 0.0 | 0.0 | 0.00 | 0.00 | 0.00 | 84 | 1020.0 |
| 20260508123801 | 58 | 333 | 0.0 | 0.0 | 0.00 | 0.00 | 0.00 | 82 | 1019.5 |
| 20260508123259 | 57 | 286 | 0.0 | 0.0 | 0.00 | 0.00 | 0.00 | 84 | 1019.5 |
| 20260508122755 | 55 | 306 | 0.0 | 0.0 | 0.00 | 0.00 | 0.00 | 93 | 1019.6 |
| 20260508122252 | 55 | 329 | 0.0 | 0.0 | 0.00 | 0.00 | 0.00 | 97 | 1019.5 |
| 20260508121749 | 55 | 285 | 0.0 | 0.0 | 0.00 | 0.00 | 0.00 | 98 | 1019.4 |
| 20260508121248 | 55 | 289 | 0.0 | 0.0 | 0.00 | 0.00 | 0.00 | 99 | 1019.4 |
| 20260508120744 | 53 | 289 | 0.0 | 0.0 | 0.00 | 0.00 | 0.00 | 99 | 1019.3 |
| 20260508120243 | 51 | 289 | 0.0 | 0.0 | 0.00 | 0.00 | 0.00 | 99 | 1019.1 |
| 20260508115740 | 51 | 289 | 0.0 | 0.0 | 0.00 | 0.00 | 0.00 | 99 | 1019.3 |
| 20260508115237 | 50 | 289 | 0.0 | 0.0 | 0.00 | 0.00 | 0.00 | 99 | 1018.9 |
| 20260508114728 | 49 | 290 | 0.0 | 0.0 | 0.00 | 0.00 | 0.00 | 99 | 1019.1 |
| 20260508114224 | 49 | 290 | 0.0 | 0.0 | 0.00 | 0.00 | 0.00 | 99 | 1018.9 |
| 20260508113720 | 49 | 284 | 0.0 | 0.0 | 0.00 | 0.00 | 0.00 | 99 | 1018.8 |
| 20260508113214 | 48 | 274 | 0.0 | 0.0 | 0.00 | 0.00 | 0.00 | 99 | 1018.5 |
| 20260508112709 | 48 | 274 | 0.0 | 0.0 | 0.00 | 0.00 | 0.00 | 99 | 1018.5 |
| 20260508112207 | 48 | 274 | 0.0 | 0.0 | 0.00 | 0.00 | 0.00 | 99 | 1018.5 |
| 20260508111703 | 47 | 274 | 0.0 | 0.0 | 0.00 | 0.00 | 0.00 | 99 | 1018.5 |
| 20260508111201 | 46 | 274 | 0.0 | 0.0 | 0.00 | 0.00 | 0.00 | 99 | 1018.6 |
| 20260508110658 | 46 | 274 | 0.0 | 0.0 | 0.00 | 0.00 | 0.00 | 99 | 1018.6 |
| 20260508110154 | 46 | 274 | 0.0 | 0.0 | 0.00 | 0.00 | 0.00 | 99 | 1018.2 |
| 20260508105649 | 46 | 274 | 0.0 | 0.0 | 0.00 | 0.00 | 0.00 | 99 | 1018.2 |
| 20260508105146 | 46 | 274 | 0.0 | 0.0 | 0.00 | 0.00 | 0.00 | 99 | 1018.3 |
| 20260508104644 | 46 | 274 | 0.0 | 0.0 | 0.00 | 0.00 | 0.00 | 99 | 1018.1 |
| 20260508104140 | 46 | 274 | 0.0 | 0.0 | 0.00 | 0.00 | 0.00 | 99 | 1018.2 |
| 20260508103637 | 46 | 274 | 0.0 | 0.0 | 0.00 | 0.00 | 0.00 | 99 | 1017.6 |
| 20260508103135 | 46 | 274 | 0.0 | 0.0 | 0.00 | 0.00 | 0.00 | 99 | 1017.8 |
| 20260508102632 | 46 | 274 | 0.0 | 0.0 | 0.00 | 0.00 | 0.00 | 99 | 1017.9 |
| 20260508102130 | 46 | 274 | 0.0 | 0.0 | 0.00 | 0.00 | 0.00 | 99 | 1017.6 |
| 20260508101627 | 46 | 274 | 0.0 | 0.0 | 0.00 | 0.00 | 0.00 | 99 | 1017.4 |
| 20260508101124 | 46 | 274 | 0.0 | 0.0 | 0.00 | 0.00 | 0.00 | 99 | 1017.3 |
| 20260508100622 | 46 | 274 | 0.0 | 0.0 | 0.00 | 0.00 | 0.00 | 99 | 1017.4 |
| 20260508100120 | 46 | 274 | 0.0 | 0.0 | 0.00 | 0.00 | 0.00 | 99 | 1017.3 |
| 20260508095616 | 46 | 274 | 0.0 | 0.0 | 0.00 | 0.00 | 0.00 | 99 | 1017.5 |
| 20260508095113 | 46 | 274 | 0.0 | 0.0 | 0.00 | 0.00 | 0.00 | 99 | 1017.1 |
| 20260508094610 | 46 | 274 | 0.0 | 0.0 | 0.00 | 0.00 | 0.00 | 99 | 1017.2 |
| 20260508094106 | 46 | 274 | 0.0 | 0.0 | 0.00 | 0.00 | 0.00 | 99 | 1017.2 |
| 20260508093604 | 47 | 274 | 0.0 | 0.0 | 0.00 | 0.00 | 0.00 | 99 | 1017.2 |
| 20260508093102 | 47 | 274 | 0.0 | 0.0 | 0.00 | 0.00 | 0.00 | 99 | 1017.2 |
| 20260508092558 | 47 | 274 | 0.0 | 0.0 | 0.00 | 0.00 | 0.00 | 99 | 1017.4 |
| 20260508092057 | 47 | 274 | 0.0 | 0.0 | 0.00 | 0.00 | 0.00 | 99 | 1017.2 |
| 20260508091554 | 47 | 274 | 0.0 | 0.0 | 0.00 | 0.00 | 0.00 | 99 | 1017.0 |
| 20260508091050 | 47 | 274 | 0.0 | 0.0 | 0.00 | 0.00 | 0.00 | 99 | 1017.1 |
| 20260508090549 | 47 | 274 | 0.0 | 0.0 | 0.00 | 0.00 | 0.00 | 99 | 1017.0 |
| 20260508090045 | 48 | 273 | 0.0 | 0.0 | 0.00 | 0.00 | 0.00 | 99 | 1017.1 |
| 20260508085542 | 48 | 274 | 0.0 | 0.0 | 0.00 | 0.00 | 0.00 | 99 | 1017.0 |
| 20260508085039 | 48 | 274 | 0.0 | 0.0 | 0.00 | 0.00 | 0.00 | 99 | 1017.0 |
| 20260508084536 | 48 | 274 | 0.0 | 0.0 | 0.00 | 0.00 | 0.00 | 99 | 1017.1 |
| 20260508084033 | 48 | 274 | 0.0 | 0.0 | 0.00 | 0.00 | 0.00 | 99 | 1016.9 |
| 20260508083530 | 48 | 274 | 0.0 | 0.0 | 0.00 | 0.00 | 0.00 | 99 | 1016.9 |
| 20260508083027 | 48 | 274 | 0.0 | 0.0 | 0.00 | 0.00 | 0.00 | 99 | 1016.8 |
| 20260508082523 | 48 | 274 | 0.0 | 0.0 | 0.00 | 0.00 | 0.00 | 99 | 1017.0 |
| 20260508082020 | 48 | 274 | 0.0 | 0.0 | 0.00 | 0.00 | 0.00 | 99 | 1016.6 |
| 20260508081518 | 48 | 274 | 0.0 | 0.0 | 0.00 | 0.00 | 0.00 | 99 | 1016.7 |
| 20260508081013 | 48 | 274 | 0.0 | 0.0 | 0.00 | 0.00 | 0.00 | 99 | 1016.6 |
| 20260508080511 | 49 | 274 | 0.0 | 0.0 | 0.00 | 0.00 | 0.00 | 99 | 1016.7 |
| 20260508080009 | 49 | 274 | 0.0 | 0.0 | 0.00 | 0.00 | 0.00 | 99 | 1016.5 |
| 20260508075505 | 49 | 274 | 0.0 | 0.0 | 0.00 | 0.00 | 0.00 | 99 | 1016.5 |
| 20260508075003 | 49 | 274 | 0.0 | 0.0 | 0.00 | 0.00 | 0.00 | 99 | 1016.5 |
| 20260508074455 | 49 | 274 | 0.0 | 0.0 | 0.00 | 0.00 | 0.00 | 99 | 1016.4 |
| 20260508073951 | 49 | 273 | 0.0 | 0.0 | 0.00 | 0.00 | 0.00 | 99 | 1016.5 |
| 20260508073449 | 49 | 273 | 0.0 | 0.0 | 0.00 | 0.00 | 0.00 | 99 | 1016.4 |
| 20260508072945 | 49 | 301 | 0.0 | 0.0 | 0.00 | 0.00 | 0.00 | 99 | 1016.3 |
| 20260508072442 | 50 | 301 | 0.0 | 0.0 | 0.00 | 0.00 | 0.00 | 99 | 1016.7 |
| 20260508071939 | 50 | 301 | 0.0 | 0.0 | 0.00 | 0.00 | 0.00 | 99 | 1016.5 |
| 20260508071437 | 50 | 301 | 0.0 | 0.0 | 0.00 | 0.00 | 0.00 | 99 | 1016.2 |
| 20260508070934 | 50 | 301 | 0.0 | 0.0 | 0.00 | 0.00 | 0.00 | 99 | 1016.2 |
| 20260508070432 | 50 | 302 | 0.0 | 0.0 | 0.00 | 0.00 | 0.00 | 99 | 1016.1 |
| 20260508065930 | 50 | 302 | 0.0 | 0.0 | 0.00 | 0.00 | 0.00 | 99 | 1016.1 |
| 20260508065428 | 50 | 302 | 0.0 | 0.0 | 0.00 | 0.00 | 0.00 | 99 | 1016.1 |
| 20260508064925 | 50 | 302 | 0.0 | 0.0 | 0.00 | 0.00 | 0.00 | 99 | 1016.1 |
| 20260508064423 | 51 | 302 | 0.0 | 0.0 | 0.00 | 0.00 | 0.00 | 99 | 1016.2 |
| 20260508063921 | 51 | 302 | 0.0 | 0.0 | 0.00 | 0.00 | 0.00 | 99 | 1016.1 |
| 20260508063418 | 51 | 302 | 0.0 | 0.0 | 0.00 | 0.00 | 0.00 | 99 | 1016.1 |
| 20260508062915 | 51 | 302 | 0.0 | 0.0 | 0.00 | 0.00 | 0.00 | 99 | 1016.2 |
| 20260508062412 | 51 | 302 | 0.0 | 0.0 | 0.00 | 0.00 | 0.00 | 99 | 1016.1 |
| 20260508061909 | 51 | 302 | 0.0 | 0.0 | 0.00 | 0.00 | 0.00 | 99 | 1016.3 |
| 20260508061407 | 52 | 303 | 0.0 | 0.0 | 0.00 | 0.00 | 0.00 | 99 | 1016.5 |
| 20260508060903 | 51 | 290 | 0.0 | 0.0 | 0.00 | 0.00 | 0.00 | 99 | 1016.2 |
| 20260508060401 | 52 | 290 | 0.0 | 0.0 | 0.00 | 0.00 | 0.00 | 99 | 1016.3 |
| 20260508055856 | 52 | 290 | 0.0 | 0.0 | 0.00 | 0.00 | 0.00 | 99 | 1016.2 |
| 20260508055353 | 52 | 290 | 0.0 | 0.0 | 0.00 | 0.00 | 0.00 | 99 | 1016.4 |
| 20260508054850 | 52 | 290 | 0.0 | 0.0 | 0.00 | 0.00 | 0.00 | 99 | 1016.3 |
| 20260508054347 | 52 | 290 | 0.0 | 0.0 | 0.00 | 0.00 | 0.00 | 99 | 1016.1 |
| 20260508053844 | 52 | 290 | 0.0 | 0.0 | 0.00 | 0.00 | 0.00 | 99 | 1016.3 |
| 20260508053341 | 52 | 290 | 0.0 | 0.0 | 0.00 | 0.00 | 0.00 | 99 | 1016.3 |
| 20260508052838 | 52 | 290 | 0.0 | 0.0 | 0.00 | 0.00 | 0.00 | 99 | 1016.1 |
| 20260508052336 | 53 | 290 | 0.0 | 0.0 | 0.00 | 0.00 | 0.00 | 99 | 1016.2 |
| 20260508051832 | 53 | 290 | 0.0 | 0.0 | 0.00 | 0.00 | 0.00 | 99 | 1016.1 |
| 20260508051327 | 53 | 290 | 0.0 | 0.0 | 0.00 | 0.00 | 0.00 | 99 | 1016.0 |
| 20260508050824 | 53 | 290 | 0.0 | 0.0 | 0.00 | 0.00 | 0.00 | 99 | 1016.0 |
| 20260508050321 | 53 | 290 | 0.0 | 0.0 | 0.00 | 0.00 | 0.00 | 99 | 1016.2 |
| 20260508045816 | 54 | 290 | 0.0 | 0.0 | 0.00 | 0.00 | 0.00 | 99 | 1016.1 |
| 20260508045315 | 54 | 290 | 0.0 | 0.0 | 0.00 | 0.00 | 0.00 | 99 | 1016.0 |
| 20260508044812 | 54 | 290 | 0.0 | 0.0 | 0.00 | 0.00 | 0.00 | 99 | 1015.9 |
| 20260508044308 | 55 | 290 | 0.0 | 0.0 | 0.00 | 0.00 | 0.00 | 99 | 1015.8 |
| 20260508043804 | 55 | 290 | 0.0 | 0.0 | 0.00 | 0.00 | 0.00 | 99 | 1015.9 |
| 20260508043302 | 55 | 291 | 0.0 | 0.0 | 0.00 | 0.00 | 0.00 | 99 | 1015.9 |
| 20260508042758 | 55 | 291 | 0.0 | 0.0 | 0.00 | 0.00 | 0.00 | 99 | 1015.8 |
| 20260508042256 | 55 | 290 | 0.0 | 0.0 | 0.00 | 0.00 | 0.00 | 99 | 1015.7 |
| 20260508041753 | 56 | 291 | 0.0 | 0.0 | 0.00 | 0.00 | 0.00 | 99 | 1015.9 |
| 20260508041249 | 56 | 290 | 0.0 | 0.0 | 0.00 | 0.00 | 0.00 | 99 | 1015.9 |
| 20260508040745 | 56 | 291 | 0.0 | 0.0 | 0.00 | 0.00 | 0.00 | 99 | 1015.7 |
| 20260508040243 | 56 | 284 | 0.0 | 0.0 | 0.00 | 0.00 | 0.00 | 99 | 1015.6 |
| 20260508035740 | 56 | 285 | 0.0 | 0.0 | 0.00 | 1.15 | 1.15 | 99 | 1015.8 |
| 20260508035238 | 56 | 284 | 0.0 | 0.0 | 0.00 | 1.15 | 1.15 | 99 | 1015.7 |
| 20260508034734 | 56 | 285 | 0.0 | 0.0 | 0.00 | 1.15 | 1.15 | 99 | 1015.7 |
| 20260508034231 | 56 | 285 | 0.0 | 0.0 | 0.00 | 1.15 | 1.15 | 99 | 1015.7 |
| 20260508033728 | 56 | 285 | 0.0 | 0.0 | 0.00 | 1.15 | 1.15 | 99 | 1015.7 |
| 20260508033227 | 57 | 285 | 0.0 | 0.0 | 0.00 | 1.15 | 1.15 | 99 | 1015.6 |
| 20260508032724 | 57 | 285 | 0.0 | 0.0 | 0.00 | 1.15 | 1.15 | 99 | 1015.6 |
| 20260508032221 | 57 | 285 | 0.0 | 0.0 | 0.00 | 1.15 | 1.15 | 99 | 1015.6 |
| 20260508031718 | 57 | 285 | 0.0 | 0.0 | 0.00 | 1.15 | 1.15 | 99 | 1015.7 |
| 20260508031214 | 57 | 285 | 0.0 | 0.0 | 0.00 | 1.15 | 1.15 | 99 | 1015.5 |
| 20260508030710 | 58 | 285 | 0.0 | 0.0 | 0.00 | 1.15 | 1.15 | 99 | 1015.5 |
| 20260508030208 | 58 | 285 | 0.0 | 0.0 | 0.00 | 1.15 | 1.15 | 99 | 1015.5 |
| 20260508025704 | 58 | 285 | 0.0 | 0.0 | 0.00 | 1.15 | 1.15 | 99 | 1015.4 |
| 20260508025202 | 59 | 285 | 0.0 | 0.0 | 0.00 | 1.15 | 1.15 | 98 | 1015.4 |
| 20260508024657 | 59 | 285 | 0.0 | 0.0 | 0.00 | 1.15 | 1.15 | 98 | 1015.4 |
| 20260508024155 | 59 | 285 | 0.0 | 0.0 | 0.00 | 1.15 | 1.15 | 98 | 1015.1 |
| 20260508023650 | 59 | 298 | 0.0 | 0.0 | 0.00 | 1.15 | 1.15 | 98 | 1015.3 |
| 20260508023149 | 59 | 296 | 0.0 | 0.0 | 0.00 | 1.15 | 1.15 | 98 | 1015.3 |
| 20260508022644 | 59 | 296 | 0.0 | 0.0 | 0.00 | 1.15 | 1.15 | 98 | 1015.0 |
| 20260508022141 | 59 | 297 | 0.0 | 0.0 | 0.00 | 1.15 | 1.15 | 98 | 1015.1 |
| 20260508021637 | 60 | 296 | 0.0 | 0.0 | 0.00 | 1.15 | 1.15 | 98 | 1014.9 |
| 20260508021133 | 60 | 276 | 0.0 | 0.0 | 0.00 | 1.15 | 1.15 | 98 | 1015.2 |
| 20260508020631 | 60 | 276 | 0.0 | 0.0 | 0.00 | 1.15 | 1.15 | 97 | 1014.9 |
| 20260508020129 | 60 | 276 | 0.0 | 0.0 | 0.00 | 1.15 | 1.15 | 97 | 1014.8 |
| 20260508015626 | 60 | 276 | 0.0 | 0.0 | 0.00 | 1.15 | 1.15 | 96 | 1014.8 |
| 20260508015123 | 60 | 276 | 0.0 | 0.0 | 0.00 | 1.15 | 1.15 | 96 | 1014.8 |
| 20260508014619 | 60 | 276 | 0.0 | 0.0 | 0.00 | 1.15 | 1.15 | 96 | 1014.8 |
| 20260508014115 | 60 | 277 | 0.0 | 0.0 | 0.00 | 1.15 | 1.15 | 96 | 1014.1 |
| 20260508013611 | 60 | 284 | 0.0 | 1.0 | 0.00 | 1.15 | 1.15 | 95 | 1014.0 |
| 20260508013108 | 60 | 282 | 0.0 | 1.0 | 0.00 | 1.15 | 1.15 | 95 | 1014.3 |
| 20260508012606 | 60 | 287 | 0.0 | 1.0 | 0.00 | 1.15 | 1.15 | 95 | 1014.0 |
| 20260508012103 | 60 | 305 | 0.0 | 1.0 | 0.00 | 1.15 | 1.15 | 95 | 1014.0 |
| 20260508011601 | 60 | 293 | 0.0 | 2.0 | 0.00 | 1.15 | 1.15 | 95 | 1014.0 |
| 20260508011058 | 60 | 309 | 0.0 | 1.0 | 0.00 | 1.15 | 1.15 | 95 | 1013.7 |
| 20260508010555 | 61 | 280 | 0.0 | 1.0 | 0.00 | 1.15 | 1.15 | 95 | 1013.8 |
| 20260508010053 | 60 | 303 | 0.0 | 2.0 | 0.00 | 1.15 | 1.15 | 96 | 1013.4 |
| 20260508005549 | 61 | 348 | 1.0 | 2.0 | 0.00 | 1.15 | 1.15 | 96 | 1013.4 |
| 20260508005046 | 61 | 304 | 0.0 | 1.0 | 0.00 | 1.15 | 1.15 | 96 | 1013.4 |
| 20260508004541 | 61 | 274 | 1.0 | 1.0 | 0.00 | 1.15 | 1.15 | 96 | 1013.3 |
| 20260508004038 | 61 | 269 | 1.0 | 2.0 | 0.00 | 1.15 | 1.15 | 95 | 1013.1 |
| 20260508003535 | 61 | 283 | 0.0 | 1.0 | 0.00 | 1.15 | 1.15 | 95 | 1013.3 |
| 20260508003033 | 61 | 282 | 1.0 | 2.0 | 0.00 | 1.15 | 1.15 | 95 | 1013.1 |
| 20260508002529 | 61 | 299 | 0.0 | 1.0 | 0.00 | 1.15 | 1.15 | 95 | 1013.0 |
| 20260508002026 | 61 | 268 | 1.0 | 2.0 | 0.00 | 1.15 | 1.15 | 95 | 1012.7 |
| 20260508001522 | 61 | 291 | 1.0 | 3.0 | 0.00 | 1.15 | 1.15 | 95 | 1012.6 |
| 20260508000352 | 62 | 282 | 1.0 | 2.0 | 0.00 | 1.15 | 1.15 | 95 | 1012.4 |
| 20260507235849 | 62 | 282 | 1.0 | 2.0 | 0.00 | 1.15 | 1.15 | 95 | 1012.4 |
| 20260507235347 | 62 | 316 | 1.0 | 2.0 | 0.00 | 1.15 | 1.15 | 95 | 1012.4 |
| 20260507234843 | 62 | 283 | 1.0 | 5.0 | 0.00 | 1.15 | 1.15 | 95 | 1012.2 |
| 20260507234340 | 62 | 265 | 1.0 | 2.0 | 0.00 | 1.15 | 1.15 | 95 | 1012.2 |
| 20260507233836 | 62 | 319 | 1.0 | 3.0 | 0.00 | 1.15 | 1.15 | 95 | 1012.1 |
| 20260507233334 | 62 | 324 | 3.0 | 5.0 | 0.00 | 1.15 | 1.15 | 94 | 1011.5 |
| 20260507232832 | 62 | 323 | 5.0 | 8.0 | 0.00 | 1.15 | 1.15 | 94 | 1011.2 |
| 20260507232328 | 62 | 316 | 4.0 | 7.0 | 0.00 | 1.15 | 1.15 | 94 | 1011.4 |
| 20260507231825 | 62 | 256 | 4.0 | 7.0 | 0.00 | 1.15 | 1.15 | 94 | 1011.6 |
| 20260507231322 | 63 | 292 | 1.0 | 3.0 | 0.00 | 1.15 | 1.15 | 94 | 1011.1 |
| 20260507230818 | 63 | 286 | 2.0 | 5.0 | 0.00 | 1.15 | 1.15 | 93 | 1010.7 |
| 20260507230316 | 64 | 329 | 0.0 | 1.0 | 0.00 | 1.15 | 1.15 | 92 | 1011.1 |
| 20260507225816 | 64 | 299 | 6.0 | 8.0 | 0.00 | 1.15 | 1.15 | 91 | 1010.7 |
| 20260507225312 | 65 | 310 | 3.0 | 3.0 | 0.00 | 1.15 | 1.15 | 90 | 1010.7 |
| 20260507224808 | 70 | 285 | 4.0 | 11.0 | 0.00 | 1.15 | 1.15 | 82 | 1010.5 |
| 20260507224305 | 70 | 285 | 4.0 | 11.0 | 0.00 | 1.15 | 1.15 | 82 | 1010.5 |
| 20260507223801 | 70 | 285 | 4.0 | 11.0 | 0.00 | 1.15 | 1.15 | 82 | 1010.5 |
| 20260507223257 | 75 | 283 | 6.0 | 13.0 | 0.00 | 1.15 | 1.15 | 76 | 1009.7 |
| 20260507222755 | 76 | 317 | 0.0 | 0.0 | 0.00 | 1.15 | 1.15 | 72 | 1009.1 |
| 20260507222251 | 77 | 288 | 0.0 | 1.0 | 0.00 | 1.15 | 1.15 | 73 | 1009.0 |
| 20260507221748 | 78 | 274 | 1.0 | 1.0 | 0.00 | 1.15 | 1.15 | 68 | 1009.0 |
| 20260507221244 | 78 | 191 | 1.0 | 2.0 | 0.00 | 1.15 | 1.15 | 67 | 1008.9 |
| 20260507220740 | 78 | 272 | 0.0 | 2.0 | 0.00 | 1.15 | 1.15 | 72 | 1008.9 |
| 20260507220239 | 78 | 318 | 3.0 | 6.0 | 0.00 | 1.15 | 1.15 | 67 | 1008.9 |
| 20260507215735 | 78 | 231 | 1.0 | 2.0 | 0.00 | 1.15 | 1.15 | 71 | 1009.0 |
| 20260507215233 | 77 | 265 | 2.0 | 3.0 | 0.00 | 1.15 | 1.15 | 69 | 1009.1 |
| 20260507214730 | 78 | 148 | 1.0 | 2.0 | 0.00 | 1.15 | 1.15 | 69 | 1008.9 |
| 20260507214227 | 77 | 298 | 1.0 | 3.0 | 0.00 | 1.15 | 1.15 | 72 | 1008.8 |
| 20260507213721 | 77 | 178 | 3.0 | 5.0 | 0.00 | 1.15 | 1.15 | 69 | 1008.9 |
| 20260507212421 | 77 | 10 | 0.0 | 3.0 | 0.00 | 1.15 | 1.15 | 73 | 1008.9 |
| 20260507211919 | 77 | 10 | 0.0 | 3.0 | 0.00 | 1.15 | 1.15 | 73 | 1008.9 |
| 20260507211415 | 77 | 176 | 2.0 | 3.0 | 0.00 | 1.15 | 1.15 | 70 | 1008.8 |
| 20260507210912 | 76 | 232 | 0.0 | 2.0 | 0.00 | 1.15 | 1.15 | 75 | 1008.7 |
| 20260507210409 | 76 | 246 | 1.0 | 2.0 | 0.00 | 1.15 | 1.15 | 74 | 1008.7 |
| 20260507205905 | 76 | 340 | 1.0 | 2.0 | 0.00 | 1.15 | 1.15 | 71 | 1008.6 |
| 20260507205403 | 77 | 180 | 4.0 | 6.0 | 0.00 | 1.15 | 1.15 | 69 | 1009.1 |
| 20260507204859 | 77 | 216 | 4.0 | 6.0 | 0.00 | 1.15 | 1.15 | 69 | 1008.9 |
| 20260507204355 | 78 | 129 | 3.0 | 5.0 | 0.00 | 1.15 | 1.15 | 69 | 1009.0 |
| 20260507203853 | 77 | 292 | 0.0 | 2.0 | 0.00 | 1.15 | 1.15 | 70 | 1008.9 |
| 20260507203351 | 78 | 216 | 2.0 | 7.0 | 0.00 | 1.15 | 1.15 | 67 | 1008.8 |
| 20260507202847 | 78 | 298 | 2.0 | 3.0 | 0.00 | 1.15 | 1.15 | 69 | 1008.5 |
| 20260507202343 | 78 | 60 | 1.0 | 1.0 | 0.00 | 1.15 | 1.15 | 66 | 1008.4 |
| 20260507201839 | 77 | 258 | 1.0 | 2.0 | 0.00 | 1.15 | 1.15 | 69 | 1008.7 |
| 20260507201334 | 76 | 159 | 2.0 | 3.0 | 0.00 | 1.15 | 1.15 | 71 | 1009.0 |
| 20260507200831 | 76 | 267 | 1.0 | 6.0 | 0.00 | 1.15 | 1.15 | 70 | 1009.0 |
| 20260507200327 | 77 | 224 | 2.0 | 5.0 | 0.00 | 1.15 | 1.15 | 67 | 1008.9 |
| 20260507195823 | 78 | 276 | 1.0 | 3.0 | 0.00 | 1.15 | 1.15 | 67 | 1008.8 |
| 20260507195321 | 78 | 194 | 2.0 | 3.0 | 0.00 | 1.15 | 1.15 | 67 | 1009.0 |
| 20260507194818 | 78 | 2 | 1.0 | 2.0 | 0.00 | 1.15 | 1.15 | 66 | 1008.9 |
| 20260507194314 | 79 | 222 | 3.0 | 3.0 | 0.00 | 1.15 | 1.15 | 69 | 1009.0 |
| 20260507193810 | 78 | 255 | 2.0 | 3.0 | 0.00 | 1.15 | 1.15 | 65 | 1009.2 |
| 20260507193308 | 77 | 279 | 1.0 | 5.0 | 0.00 | 1.15 | 1.15 | 70 | 1009.4 |
| 20260507192803 | 77 | 64 | 1.0 | 3.0 | 0.00 | 1.15 | 1.15 | 67 | 1009.5 |
| 20260507192301 | 77 | 70 | 1.0 | 2.0 | 0.00 | 1.15 | 1.15 | 69 | 1009.5 |
| 20260507191756 | 75 | 265 | 0.0 | 2.0 | 0.00 | 1.15 | 1.15 | 74 | 1009.8 |
| 20260507191253 | 77 | 240 | 3.0 | 6.0 | 0.00 | 1.15 | 1.15 | 67 | 1010.1 |
| 20260507190750 | 78 | 306 | 1.0 | 5.0 | 0.00 | 1.15 | 1.15 | 69 | 1010.0 |
| 20260507190249 | 77 | 72 | 2.0 | 3.0 | 0.00 | 1.15 | 1.15 | 71 | 1009.9 |
| 20260507185747 | 77 | 271 | 0.0 | 5.0 | 0.00 | 1.15 | 1.15 | 71 | 1009.8 |
| 20260507185243 | 77 | 77 | 3.0 | 3.0 | 0.00 | 1.15 | 1.15 | 71 | 1009.9 |
| 20260507184741 | 76 | 19 | 1.0 | 5.0 | 0.00 | 1.15 | 1.15 | 73 | 1009.9 |
| 20260507184239 | 76 | 176 | 3.0 | 6.0 | 0.00 | 1.15 | 1.15 | 72 | 1009.9 |
| 20260507183735 | 76 | 252 | 3.0 | 6.0 | 0.00 | 1.15 | 1.15 | 76 | 1010.0 |
| 20260507183232 | 75 | 138 | 1.0 | 2.0 | 0.00 | 1.15 | 1.15 | 77 | 1009.7 |
| 20260507182730 | 75 | 229 | 2.0 | 6.0 | 0.00 | 1.15 | 1.15 | 74 | 1010.0 |
| 20260507182225 | 75 | 274 | 0.0 | 2.0 | 0.00 | 1.15 | 1.15 | 75 | 1010.0 |
| 20260507181722 | 74 | 247 | 3.0 | 6.0 | 0.00 | 1.15 | 1.15 | 76 | 1010.0 |
| 20260507181218 | 75 | 149 | 1.0 | 2.0 | 0.00 | 1.15 | 1.15 | 76 | 1009.9 |
| 20260507180715 | 74 | 230 | 0.0 | 3.0 | 0.00 | 1.15 | 1.15 | 77 | 1009.9 |
| 20260507180212 | 74 | 117 | 2.0 | 5.0 | 0.00 | 1.15 | 1.15 | 77 | 1009.9 |
| 20260507175707 | 74 | 23 | 1.0 | 3.0 | 0.00 | 1.15 | 1.15 | 79 | 1010.1 |
| 20260507175204 | 73 | 243 | 2.0 | 3.0 | 0.00 | 1.15 | 1.15 | 84 | 1009.9 |
| 20260507174702 | 72 | 251 | 1.0 | 2.0 | 0.00 | 1.15 | 1.15 | 82 | 1010.3 |
| 20260507174200 | 72 | 171 | 1.0 | 6.0 | 0.00 | 1.15 | 1.15 | 83 | 1010.2 |
| 20260507173657 | 72 | 273 | 2.0 | 5.0 | 0.00 | 1.15 | 1.15 | 84 | 1010.4 |
| 20260507173153 | 71 | 75 | 1.0 | 3.0 | 0.00 | 1.15 | 1.15 | 83 | 1010.7 |
| 20260507172650 | 71 | 212 | 1.0 | 5.0 | 0.00 | 1.15 | 1.15 | 84 | 1010.7 |
| 20260507172148 | 72 | 289 | 1.0 | 3.0 | 0.00 | 1.15 | 1.15 | 85 | 1010.7 |
| 20260507171647 | 71 | 21 | 1.0 | 5.0 | 0.00 | 1.15 | 1.15 | 85 | 1011.0 |
| 20260507171145 | 71 | 220 | 1.0 | 1.0 | 0.00 | 1.15 | 1.15 | 89 | 1011.0 |
| 20260507170642 | 70 | 274 | 1.0 | 2.0 | 0.00 | 1.15 | 1.15 | 86 | 1010.9 |
| 20260507170139 | 70 | 202 | 2.0 | 3.0 | 0.00 | 1.15 | 1.15 | 86 | 1010.7 |
| 20260507165634 | 70 | 205 | 3.0 | 3.0 | 0.00 | 1.15 | 1.15 | 87 | 1010.3 |
| 20260507165131 | 70 | 250 | 1.0 | 1.0 | 0.00 | 1.15 | 1.15 | 91 | 1010.4 |
| 20260507164627 | 69 | 269 | 0.0 | 1.0 | 0.00 | 1.15 | 1.15 | 94 | 1010.9 |
| 20260507164123 | 68 | 270 | 0.0 | 2.0 | 0.00 | 1.15 | 1.15 | 94 | 1011.2 |
| 20260507163621 | 67 | 177 | 2.0 | 3.0 | 0.00 | 1.15 | 1.15 | 95 | 1011.1 |
| 20260507162249 | 67 | 238 | 2.0 | 2.0 | 0.00 | 1.15 | 1.15 | 99 | 1011.0 |
| 20260507161747 | 67 | 238 | 2.0 | 2.0 | 0.00 | 1.15 | 1.15 | 99 | 1011.0 |
| 20260507161243 | 67 | 226 | 0.0 | 3.0 | 0.00 | 1.15 | 1.15 | 99 | 1011.0 |
| 20260507160738 | 66 | 357 | 1.0 | 2.0 | 0.00 | 1.15 | 1.15 | 99 | 1011.5 |
| 20260507160235 | 66 | 218 | 1.0 | 5.0 | 0.00 | 1.15 | 1.15 | 99 | 1011.7 |
| 20260507155731 | 67 | 127 | 4.0 | 8.0 | 0.00 | 1.15 | 1.15 | 99 | 1011.6 |
| 20260507155227 | 66 | 235 | 0.0 | 1.0 | 0.00 | 1.15 | 1.15 | 99 | 1011.3 |
| 20260507154724 | 67 | 294 | 1.0 | 2.0 | 0.00 | 1.15 | 1.15 | 99 | 1011.6 |